EW6174 Weather Reports


time (UTC)temp
C
wind
direction
speed
KPH
gust
KPH
rain 1hr
cm
rain 24hr
cm
rain mn
cm
humidity
%
barometer
mb
20260506174550 16 229 3.2 11.3 0.00 1.60 1.57 65 1010.0
20260506173055 17 244 9.7 17.7 0.00 1.60 1.57 62 1009.8
20260506171550 17 249 3.2 11.3 0.00 1.60 1.57 62 1009.6
20260506170100 17 170 6.4 12.9 0.00 1.60 1.57 62 1009.6
20260506164546 17 241 4.8 16.1 0.00 1.60 1.57 63 1009.7
20260506163105 17 229 6.4 16.1 0.00 1.60 1.57 63 1009.7
20260506161542 18 257 6.4 17.7 0.00 1.60 1.57 62 1009.8
20260506160042 17 238 9.7 17.7 0.00 1.60 1.57 63 1009.8
20260506154525 18 250 6.4 17.7 0.00 1.60 1.57 62 1009.7
20260506153024 17 240 6.4 19.3 0.00 1.60 1.57 62 1009.6
20260506151523 18 248 8.0 14.5 0.00 1.60 1.57 61 1009.6
20260506150027 18 246 9.7 17.7 0.00 1.60 1.57 60 1009.7
20260506144524 18 238 9.7 20.9 0.00 1.60 1.57 59 1009.8
20260506143021 18 240 9.7 19.3 0.00 1.60 1.57 58 1009.8
20260506141617 18 266 9.7 20.9 0.00 1.60 1.57 56 1009.8
20260506140015 18 228 8.0 24.1 0.00 1.60 1.57 55 1009.9
20260506134514 18 218 6.4 22.5 0.00 1.60 1.57 60 1009.9
20260506133012 18 244 6.4 27.4 0.00 1.60 1.57 60 1010.1
20260506131546 19 248 9.7 22.5 0.00 1.60 1.57 59 1010.1
20260506130044 18 194 9.7 17.7 0.00 1.60 1.57 59 1010.1
20260506124508 18 231 9.7 19.3 0.00 1.60 1.57 60 1010.1
20260506123056 18 250 3.2 19.3 0.00 1.60 1.57 60 1010.0
20260506121556 18 249 3.2 16.1 0.00 1.60 1.57 61 1010.1
20260506120059 18 242 8.0 14.5 0.00 1.60 1.57 58 1010.2
20260506114604 18 290 3.2 17.7 0.00 1.60 1.57 60 1010.1
20260506113053 18 232 4.8 16.1 0.00 1.60 1.57 58 1010.2
20260506111549 18 303 4.8 12.9 0.00 1.60 1.57 56 1010.4
20260506110055 18 267 6.4 14.5 0.00 1.60 1.57 59 1010.4
20260506104547 18 258 4.8 14.5 0.00 1.60 1.57 60 1010.5
20260506103028 17 245 8.0 14.5 0.00 1.60 1.57 61 1010.6
20260506101513 17 238 4.8 12.9 0.00 1.60 1.57 67 1010.5
20260506100011 17 289 1.6 12.9 0.00 1.60 1.57 68 1010.6
20260506094508 16 269 1.6 9.7 0.00 1.60 1.57 70 1010.5
20260506093005 16 252 6.4 11.3 0.00 1.60 1.57 69 1010.4
20260506091502 16 344 1.6 11.3 0.00 1.60 1.57 70 1010.3
20260506090059 16 22 1.6 11.3 0.00 1.60 1.57 75 1010.3
20260506084555 15 254 3.2 8.0 0.00 1.60 1.57 78 1010.2
20260506083059 15 256 3.2 12.9 0.00 1.60 1.57 83 1010.2
20260506081548 14 232 3.2 11.3 0.00 1.60 1.57 87 1010.1
20260506073045 12 264 3.2 6.4 0.00 1.60 1.57 94 1009.9
20260506071534 12 265 0.0 3.2 0.00 1.60 1.57 94 1009.9
20260506044555 11 360 1.6 8.0 0.00 1.60 1.57 94 1008.6
20260506043055 11 360 0.0 0.0 0.00 1.60 1.57 94 1008.5
20260506041556 11 360 0.0 6.4 0.00 1.60 1.57 94 1008.5
20260506040101 11 360 0.0 4.8 0.00 1.60 1.57 94 1008.5
20260506034605 11 80 0.0 0.0 0.00 1.60 1.57 94 1008.5
20260506033051 11 360 0.0 3.2 0.00 1.60 1.57 94 1008.4
20260506031600 11 360 0.0 3.2 0.00 1.60 1.57 94 1008.4
20260506030049 11 360 0.0 3.2 0.00 1.60 1.57 94 1008.4
20260506024551 11 360 0.0 0.0 0.00 1.60 1.57 94 1008.1
20260506023048 11 360 0.0 1.6 0.00 1.60 1.57 93 1008.0
20260506021550 11 76 0.0 0.0 0.03 1.60 1.57 93 1007.8
20260506020044 11 76 0.0 1.6 0.05 1.60 1.57 93 1007.5
20260506014543 11 76 1.6 6.4 0.18 1.65 1.57 93 1007.2
20260506013044 11 75 1.6 3.2 0.43 1.65 1.57 93 1007.1
20260506011540 11 71 0.0 4.8 0.71 1.63 1.55 92 1006.7
20260506010041 11 71 0.0 6.4 0.94 1.60 1.52 93 1007.7
20260506004536 12 43 1.6 4.8 0.91 1.55 1.40 92 1008.1
20260506003032 12 262 1.6 6.4 0.69 1.27 1.12 92 1009.0
20260506001528 12 279 3.2 16.1 0.56 0.99 0.84 92 1009.1
20260506000024 13 250 0.0 8.0 0.43 0.71 0.58 92 1008.9
20260505234522 13 304 1.6 4.8 0.46 0.89 0.48 91 1008.8
20260505233021 13 304 0.0 1.6 0.43 0.84 0.43 91 1008.3
20260505231526 13 304 0.0 3.2 0.28 0.69 0.28 90 1008.8
20260505230022 13 304 0.0 3.2 0.13 0.53 0.13 90 1009.2
20260505224512 13 304 0.0 3.2 0.03 1.12 0.03 89 1009.2
20260505223014 13 304 0.0 1.6 0.03 1.09 0.00 88 1009.2
20260505221510 13 304 0.0 0.0 0.03 1.09 0.00 87 1009.2
20260505220006 14 304 0.0 1.6 0.03 1.09 0.00 87 1009.6
20260505214505 14 304 1.6 9.7 0.03 1.30 1.09 86 1009.8
20260505213004 15 265 1.6 6.4 0.00 1.27 1.07 84 1010.3
20260505211504 15 273 1.6 6.4 0.00 1.27 1.07 81 1010.3
20260505210003 14 171 1.6 4.8 0.00 1.27 1.07 76 1010.4
20260505204502 15 169 0.0 1.6 0.00 1.27 1.07 74 1009.9
20260505203002 15 174 1.6 6.4 0.00 1.27 1.07 74 1009.9
20260505201502 15 195 0.0 3.2 0.00 1.27 1.07 74 1009.9
20260505200103 15 195 0.0 4.8 0.00 1.27 1.07 75 1009.8
20260505194622 15 197 0.0 3.2 0.00 1.27 1.07 79 1009.6
20260505194504 15 197 0.0 1.6 0.00 1.27 1.07 79 1009.6
20260505193059 15 197 0.0 3.2 0.00 1.27 1.07 79 1009.6
20260505191559 15 197 0.0 3.2 0.00 1.27 1.07 78 1009.6
20260505190058 16 197 0.0 1.6 0.00 1.27 1.07 76 1009.9
20260505184558 16 197 0.0 3.2 0.00 1.93 1.07 74 1009.8
20260505183058 16 197 0.0 3.2 0.00 1.93 1.07 73 1009.9
20260505181659 16 197 0.0 3.2 0.00 1.93 1.07 72 1010.0
20260505180021 17 197 3.2 8.0 0.00 1.93 1.07 70 1010.0